FW5743 Weather Reports


Display with metric or nautical units.
time (UTC)temp
F
wind
direction
speed
MPH
gust
MPH
rain 1hr
in
rain 24hr
in
rain mn
in
humidity
%
barometer
mb
20260503233515 53 256 2.0 8.0 0.00 0.00 0.00 78 1008.4
20260503233015 52 204 2.0 6.0 0.00 0.00 0.00 78 1008.5
20260503232515 52 260 2.0 7.0 0.00 0.00 0.00 77 1008.5
20260503232015 52 234 3.0 7.0 0.00 0.00 0.00 78 1008.6
20260503231515 52 235 3.0 7.0 0.00 0.00 0.00 78 1008.7
20260503231015 52 254 3.0 7.0 0.00 0.00 0.00 78 1008.7
20260503230516 52 233 3.0 5.0 0.00 0.00 0.00 78 1008.8
20260503230015 52 235 2.0 8.0 0.00 0.00 0.00 78 1008.9
20260503225515 52 229 3.0 8.0 0.00 0.00 0.00 79 1008.8
20260503225035 52 217 3.0 7.0 0.00 0.00 0.00 79 1008.8
20260503224515 52 219 3.0 9.0 0.00 0.00 0.00 79 1008.9
20260503224035 52 234 3.0 11.0 0.00 0.00 0.00 78 1009.0
20260503223535 52 250 4.0 11.0 0.00 0.00 0.00 78 1009.1
20260503223015 52 239 3.0 10.0 0.00 0.00 0.00 78 1009.2
20260503222535 52 264 4.0 11.0 0.00 0.00 0.00 78 1009.2
20260503222015 52 274 4.0 11.0 0.00 0.00 0.00 77 1009.2
20260503221515 52 233 3.0 10.0 0.00 0.00 0.00 77 1009.3
20260503221037 52 272 5.0 11.0 0.00 0.00 0.00 76 1009.2
20260503220515 53 274 5.0 11.0 0.00 0.00 0.00 76 1009.3
20260503220015 53 263 4.0 10.0 0.00 0.00 0.00 75 1009.3
20260503215518 53 265 5.0 14.0 0.00 0.00 0.00 75 1009.3
20260503215015 53 264 5.0 14.0 0.00 0.00 0.00 75 1009.4
20260503214515 53 255 6.0 17.0 0.00 0.00 0.00 74 1009.3
20260503214015 53 257 9.0 17.0 0.00 0.00 0.00 73 1009.4
20260503213515 53 248 7.0 17.0 0.00 0.00 0.00 73 1009.4
20260503213035 53 255 5.0 13.0 0.00 0.00 0.00 74 1009.4
20260503212515 54 254 5.0 13.0 0.00 0.00 0.00 74 1009.3
20260503212015 54 267 6.0 11.0 0.00 0.00 0.00 74 1009.4
20260503211515 54 269 5.0 11.0 0.00 0.00 0.00 73 1009.4
20260503211035 54 267 4.0 13.0 0.00 0.00 0.00 72 1009.3
20260503210535 55 267 6.0 13.0 0.00 0.00 0.00 70 1009.3
20260503210015 55 275 6.0 17.0 0.00 0.00 0.00 69 1009.4
20260503205515 56 274 6.0 17.0 0.00 0.00 0.00 66 1009.2
20260503205015 57 280 8.0 22.0 0.00 0.00 0.00 63 1009.1
20260503204515 58 274 10.0 22.0 0.00 0.00 0.00 59 1009.1
20260503204015 58 289 7.0 21.0 0.00 0.00 0.00 54 1008.9
20260503203515 58 283 5.0 10.0 0.00 0.00 0.00 55 1008.7
20260503203015 58 277 4.0 15.0 0.00 0.00 0.00 55 1008.8
20260503202515 58 262 6.0 15.0 0.00 0.00 0.00 54 1008.7
20260503202015 59 257 7.0 16.0 0.00 0.00 0.00 54 1008.8
20260503201515 59 247 8.0 21.0 0.00 0.00 0.00 52 1008.8
20260503201015 59 237 9.0 21.0 0.00 0.00 0.00 51 1008.7
20260503200516 59 315 7.0 13.0 0.00 0.00 0.00 52 1008.6
20260503200015 59 326 4.0 14.0 0.00 0.00 0.00 53 1008.7
20260503195515 59 226 5.0 17.0 0.00 0.00 0.00 54 1008.8
20260503195015 59 247 7.0 17.0 0.00 0.00 0.00 52 1009.0
20260503194555 60 254 7.0 14.0 0.00 0.00 0.00 49 1008.9
20260503194036 60 235 7.0 14.0 0.00 0.00 0.00 49 1008.8
20260503193515 60 224 6.0 14.0 0.00 0.00 0.00 47 1008.8
20260503193015 60 227 6.0 12.0 0.00 0.00 0.00 48 1008.8
20260503192535 60 225 5.0 11.0 0.00 0.00 0.00 48 1008.7
20260503192055 60 216 6.0 12.0 0.00 0.00 0.00 48 1008.8
20260503191515 59 217 6.0 16.0 0.00 0.00 0.00 47 1008.9
20260503191015 59 219 6.0 16.0 0.00 0.00 0.00 49 1008.9
20260503190515 57 287 3.0 8.0 0.00 0.00 0.00 53 1008.8
20260503190015 56 0 1.0 7.0 0.00 0.00 0.00 61 1009.0
20260503185535 55 12 2.0 7.0 0.00 0.00 0.00 62 1009.1
20260503185016 55 83 1.0 3.0 0.00 0.00 0.00 60 1009.4
20260503184515 54 95 1.0 4.0 0.00 0.00 0.00 60 1009.4
20260503184015 54 105 2.0 6.0 0.00 0.00 0.00 60 1009.6
20260503183515 54 96 2.0 6.0 0.00 0.00 0.00 57 1009.6
20260503183015 55 83 2.0 5.0 0.00 0.00 0.00 56 1009.8
20260503182514 55 82 2.0 7.0 0.00 0.00 0.00 54 1009.8
20260503182014 56 103 2.0 8.0 0.00 0.00 0.00 52 1010.0
20260503181515 57 134 3.0 8.0 0.00 0.00 0.00 50 1010.1
20260503181015 57 77 2.0 6.0 0.00 0.00 0.00 50 1010.2
20260503180515 57 88 2.0 7.0 0.00 0.00 0.00 49 1010.3
20260503180015 57 130 2.0 11.0 0.00 0.00 0.00 49 1010.3
20260503175515 57 143 3.0 11.0 0.00 0.00 0.00 48 1010.5
20260503175014 57 131 4.0 9.0 0.00 0.00 0.00 47 1010.5
20260503174515 58 120 3.0 8.0 0.00 0.00 0.00 46 1010.6
20260503174035 57 120 2.0 8.0 0.00 0.00 0.00 48 1010.6
20260503173514 58 124 3.0 8.0 0.00 0.00 0.00 47 1010.8
20260503173015 58 120 3.0 8.0 0.00 0.00 0.00 46 1010.9
20260503172515 58 141 3.0 9.0 0.00 0.00 0.00 46 1011.0
20260503172015 58 133 3.0 9.0 0.00 0.00 0.00 45 1011.0
20260503171516 58 141 4.0 9.0 0.00 0.00 0.00 44 1011.1
20260503171037 58 161 3.0 9.0 0.00 0.00 0.00 44 1011.3
20260503170516 58 157 3.0 11.0 0.00 0.00 0.00 46 1011.4
20260503150517 52 193 2.0 6.0 0.00 0.00 0.00 49 1013.0
20260503131039 45 279 2.0 7.0 0.00 0.00 0.00 65 1013.8
20260503130516 44 273 3.0 8.0 0.00 0.00 0.00 65 1013.8
20260503110516 30 251 0.0 1.0 0.00 0.00 0.00 84 1013.6
20260503081515 31 0.0 0.0 0.00 0.00 0.00 77 1014.3
20260503081035 32 0.0 0.0 0.00 0.00 0.00 76 1014.3
20260503080515 31 0.0 0.0 0.00 0.00 0.00 76 1014.3
20260503072515 32 0.0 0.0 0.00 0.00 0.00 74 1014.4
20260503072035 32 0.0 0.0 0.00 0.00 0.00 74 1014.5
20260503071516 32 0.0 0.0 0.00 0.00 0.00 74 1014.4
20260503071015 32 0.0 0.0 0.00 0.00 0.00 73 1014.5
20260503070515 32 0.0 1.0 0.00 0.00 0.00 73 1014.5
20260503055015 34 280 0.0 3.0 0.00 0.00 0.00 72 1014.9
20260503054515 34 279 1.0 3.0 0.00 0.00 0.00 72 1014.8
20260503054015 34 342 1.0 3.0 0.00 0.00 0.00 72 1014.8
20260503053515 34 312 1.0 2.0 0.00 0.00 0.00 72 1014.8
20260503053015 34 0.0 0.0 0.00 0.00 0.00 72 1014.8
20260503052515 34 0.0 0.0 0.00 0.00 0.00 72 1014.8
20260503052015 34 0.0 0.0 0.00 0.00 0.00 72 1014.9
20260503051515 34 0.0 0.0 0.00 0.00 0.00 72 1014.9
20260503051015 34 0.0 0.0 0.00 0.00 0.00 72 1014.9
20260503050515 35 0.0 0.0 0.00 0.00 0.00 72 1014.9
20260503050035 35 0.0 0.0 0.00 0.00 0.00 71 1014.9
20260503045515 35 0.0 0.0 0.00 0.00 0.00 71 1014.9
20260503045055 35 0.0 0.0 0.00 0.00 0.00 71 1014.9
20260503044515 35 0.0 0.0 0.00 0.00 0.00 70 1015.0
20260503044015 36 0.0 0.0 0.00 0.00 0.00 70 1015.1
20260503043535 36 0.0 0.0 0.00 0.00 0.00 70 1015.1
20260503043055 36 0.0 0.0 0.00 0.00 0.00 69 1015.1
20260503042515 36 0.0 0.0 0.00 0.00 0.00 69 1015.2
20260503042015 36 0.0 0.0 0.00 0.00 0.00 69 1015.2
20260503041515 37 0.0 0.0 0.00 0.00 0.00 68 1015.3
20260503041015 37 0.0 0.0 0.00 0.00 0.00 68 1015.3
20260503040515 37 0.0 0.0 0.00 0.00 0.00 68 1015.3
20260503040015 37 0.0 0.0 0.00 0.00 0.00 67 1015.2
20260503035516 37 0.0 0.0 0.00 0.00 0.00 67 1015.3
20260503035056 38 0.0 3.0 0.00 0.00 0.00 66 1015.3
20260503034516 38 0 1.0 4.0 0.00 0.00 0.00 66 1015.4
20260503034016 38 0 2.0 4.0 0.00 0.00 0.00 66 1015.4
20260503033516 38 0 1.0 3.0 0.00 0.00 0.00 66 1015.4
20260503033016 38 0 1.0 3.0 0.00 0.00 0.00 66 1015.4
20260503032517 38 0 0.0 2.0 0.00 0.00 0.00 67 1015.4
20260503032016 38 0 0.0 2.0 0.00 0.00 0.00 67 1015.4
20260503031516 38 0 1.0 3.0 0.00 0.00 0.00 66 1015.4
20260503031016 38 0 1.0 4.0 0.00 0.00 0.00 66 1015.3
20260503030515 38 0 1.0 4.0 0.00 0.00 0.00 66 1015.3
20260503030016 38 0 2.0 3.0 0.00 0.00 0.00 67 1015.4
20260503025516 38 0 1.0 4.0 0.00 0.00 0.00 67 1015.4
20260503025016 37 0 1.0 4.0 0.00 0.00 0.00 67 1015.5
20260503024516 37 0 1.0 3.0 0.00 0.00 0.00 68 1015.5
20260503024016 37 0 1.0 3.0 0.00 0.00 0.00 68 1015.6
20260503023515 37 0 1.0 3.0 0.00 0.00 0.00 68 1015.6
20260503023015 38 0.0 0.0 0.00 0.00 0.00 68 1015.7
20260503022536 38 0.0 0.0 0.00 0.00 0.00 68 1015.6
20260503022015 38 0.0 0.0 0.00 0.00 0.00 68 1015.7
20260503021536 38 0.0 0.0 0.00 0.00 0.00 67 1015.7
20260503021015 39 0.0 0.0 0.00 0.00 0.00 67 1015.6
20260503020516 39 0.0 0.0 0.00 0.00 0.00 67 1015.6
20260503020016 39 0.0 0.0 0.00 0.00 0.00 66 1015.5
20260503015515 40 0.0 0.0 0.00 0.00 0.00 66 1015.5
20260503015036 40 0.0 0.0 0.00 0.00 0.00 65 1015.5
20260503014515 40 0.0 1.0 0.00 0.00 0.00 65 1015.5
20260503014015 41 0 0.0 1.0 0.00 0.00 0.00 63 1015.5
20260503013515 41 0.0 0.0 0.00 0.00 0.00 62 1015.6
20260503013015 42 0.0 0.0 0.00 0.00 0.00 61 1015.6
20260503012515 42 0.0 0.0 0.00 0.00 0.00 60 1015.5
20260503012016 42 0.0 1.0 0.00 0.00 0.00 58 1015.5
20260503011515 43 0 0.0 1.0 0.00 0.00 0.00 57 1015.5
20260503011017 43 0 0.0 2.0 0.00 0.00 0.00 57 1015.5
20260503010515 43 0 0.0 3.0 0.00 0.00 0.00 56 1015.5
20260503010036 44 0 1.0 4.0 0.00 0.00 0.00 55 1015.5
20260503005515 44 0 1.0 4.0 0.00 0.00 0.00 54 1015.5
20260503005015 44 0 1.0 5.0 0.00 0.00 0.00 54 1015.4
20260503004515 44 0 1.0 5.0 0.00 0.00 0.00 54 1015.3
20260503004015 44 0 1.0 4.0 0.00 0.00 0.00 54 1015.3
20260503003516 44 0 1.0 4.0 0.00 0.00 0.00 55 1015.3
20260503003015 45 0 1.0 4.0 0.00 0.00 0.00 54 1015.3
20260503002516 45 359 2.0 4.0 0.00 0.00 0.00 54 1015.3
20260503002017 45 353 1.0 5.0 0.00 0.00 0.00 54 1015.3
20260503001515 45 359 2.0 5.0 0.00 0.00 0.00 54 1015.3
20260503001015 45 334 2.0 7.0 0.00 0.00 0.00 53 1015.3
20260503000515 45 255 3.0 8.0 0.00 0.00 0.00 53 1015.3
20260503000015 45 295 3.0 8.0 0.00 0.00 0.00 54 1015.3
20260502235515 45 270 4.0 8.0 0.00 0.00 0.00 53 1015.3
20260502235015 45 358 3.0 7.0 0.00 0.00 0.00 55 1015.2
20260502234515 45 325 3.0 7.0 0.00 0.00 0.00 55 1015.3
20260502234035 45 281 3.0 7.0 0.00 0.00 0.00 55 1015.3